sat.trackr.live / text

‹ back to catalog

STARLINK-5275

NORAD 55398 · 2023-014H

PAYLOAD ACTIVE UNKNOWN

§ Identity

Operator
Country
US
Launch date
2023-01-31
Launch site
AFWTR
Launch vehicle
Mass (kg)
RCS (m²)

Purposes: comms

External: N2YO · Heavens-Above · Gunter

§ Orbital elements

Epoch: 2026-09-20T11:27:14.963328Z

Period
96.11 min
Inclination
69.9979°
Eccentricity
0.0003546
Mean motion
14.98334913 rev/d
Perigee alt
569.6 km
Apogee alt
574.5 km
Semi-major
6,950.2 km
B*
3.0083e-5
RAAN
293.2896°
Arg perigee
266.1142°
Mean anomaly
93.9612°
Rev number
20,123

§ Raw data

STARLINK-52751 55398U 23014H   26263.47725652  .00000266  00000+0  30083-4 0  99982 55398  69.9979 293.2896 0003546 266.1142  93.9612 14.98334913201233

JSON: /api/v1/satellites/55398 · /tle

For live sub-satellite position, see the globe view (requires WebGL).

§ Visibility from observer

Set your observer location to see the next 7 days of passes ≥ 10°. The values pass through the URL so the page stays shareable.

No JS? Fill the form by hand. The geolocation button needs JavaScript.